Left ArrowRight Arrow

39.71368, -82.59933

Hourly Observations for June 16, 2024

Temp ( °F °C ) Dew Point ( °F °C ) Humidity (%) Winds ( mph kmh ) Pressure ( in mb ) Visibility ( mi km ) Precip ( " mm )
12:53 am 00:53 Clear 56 13.3 55 12.8 97 97 Calm 30.11 1020 10 16 0.00 0.00
1:53 am 01:53 Clear 56 13.3 56 13.3 100 100 Calm 30.09 1019 10 16 0.00 0.00
2:53 am 02:53 Clear 53 11.7 53 11.7 100 100 Calm 30.10 1019 10 16 0.00 0.00
3:53 am 03:53 Clear 53 11.7 53 11.7 100 100 Calm 30.10 1019 10 16 0.00 0.00
4:53 am 04:53 Clear 52 11.1 52 11.1 100 100 Calm 30.11 1020 10 16 0.00 0.00
5:53 am 05:53 Clear 51 10.6 51 10.6 100 100 Calm 30.11 1020 10 16 0.00 0.00
6:53 am 06:53 Sunny 53 11.7 53 11.7 100 100 Calm 30.11 1020 10 16 0.00 0.00
7:53 am 07:53 Sunny 59 15 57 13.9 93 93 Calm 30.11 1020 10 16 0.00 0.00
8:53 am 08:53 Sunny 67 19.4 58 14.4 73 73 VRB 5 7 30.11 1020 10 16 0.00 0.00
9:53 am 09:53 Sunny 72 22.2 57 13.9 59 59 E 8 13 30.09 1019 10 16 0.00 0.00
10:53 am 10:53 Sunny 76 24.4 59 15 56 56 ESE 7 11 30.09 1019 10 16 0.00 0.00
11:53 am 11:53 Sunny 79 26.1 60 15.6 52 52 ESE 6 9 30.08 1019 10 16 0.00 0.00
12:53 pm 12:53 Sunny 81 27.2 59 15 47 47 S 7 11 30.08 1019 10 16 0.00 0.00
1:53 pm 13:53 Sunny 84 28.9 60 15.6 45 45 VRB 3 6 30.06 1018 10 16 0.00 0.00
2:53 pm 14:53 Sunny 85 29.4 59 15 42 42 VRB 3 6 30.05 1018 10 16 0.00 0.00
3:53 pm 15:53 Sunny 86 30 58 14.4 39 39 SSE 6 9 30.03 1017 10 16 0.00 0.00
4:53 pm 16:53 Sunny 87 30.6 59 15 39 39 SW 8 13 30.02 1017 10 16 0.00 0.00
5:53 pm 17:53 Sunny 86 30 58 14.4 39 39 SSW 6 9 30.01 1016 10 16 0.00 0.00
6:53 pm 18:53 Sunny 85 29.4 59 15 42 42 S 9 15 29.99 1016 10 16 0.00 0.00
7:53 pm 19:53 Sunny 82 27.8 61 16.1 49 49 S 8 13 29.99 1016 10 16 0.00 0.00
8:53 pm 20:53 Sunny 77 25 62 16.7 60 60 S 3 6 30.01 1016 10 16 0.00 0.00
9:53 pm 21:53 Clear 66 18.9 64 17.8 93 93 Calm 30.02 1017 10 16 0.00 0.00
10:53 pm 22:53 Clear 66 18.9 63 17.2 90 90 Calm 30.03 1017 10 16 0.00 0.00
11:53 pm 23:53 Clear 64 17.8 62 16.7 93 93 Calm 30.04 1017 10 16 0.00 0.00

Powered by Vaisala Xweather